Wetbulb
30.88 30.52 29.89 28.89 28.30 27.60 27.36 27.26 27.66 27.70 27.38 27.08 26.36 26.41 25.64 24.79 24.45 24.26 24.47 24.93 24.86 24.64 24.65 24.99 25.16 25.08 24.75 24.91 25.17 24.23 24.49 26.02
30.06 29.99 29.91 29.09 28.29 27.61 27.43 26.96 26.38 26.74 26.00 25.65 25.05 24.95 25.16 24.41 23.81 23.98 24.07 24.38 24.53 24.59 24.05 23.71 23.50 23.73 23.28 23.29 23.80 23.49 24.00 24.45
30.43 28.93 28.45 28.35 27.77 27.02 26.31 26.00 26.05 25.76 24.80 25.14 24.53 24.39 23.84 23.57 23.79 23.93 23.71 24.29 24.21 24.38 23.82 23.28 23.08 22.83 21.98 22.15 22.56 22.00 22.50 23.71
27.61 27.05 26.64 26.01 25.64 25.58 25.74 25.83 26.27 25.34 24.82 24.59 24.33 23.45 23.20 23.46 23.90 23.82 23.52 23.12 23.01 23.37 22.39 22.30 22.38 22.34 22.25 22.06 22.08 22.06 22.72 23.33
25.08 25.24 25.37 24.82 24.65 24.25 24.52 25.34 25.65 24.71 24.43 23.70 23.14 23.06 22.73 23.16 22.61 22.21 22.16 21.16 20.71 20.70 20.70 20.79 21.07 21.50 21.86 22.42 22.45 22.69 23.25 23.54
26.81 25.13 23.80 23.84 24.15 24.07 24.11 24.55 24.44 23.56 23.72 23.23 23.04 22.79 22.11 21.60 21.26 20.68 20.13 19.70 19.42 19.02 18.86 19.03 19.50 21.34 21.05 21.43 20.80 20.48 20.50 21.50
25.54 25.62 25.11 24.95 25.01 25.01 24.57 24.28 24.23 23.50 21.99 21.64 21.27 21.20 20.61 19.67 18.73 18.22 17.85 17.12 16.95 16.50 16.18 15.69 18.09 20.99 21.99 21.54 19.25 19.47 19.15 18.47
25.86 25.82 25.80 24.97 26.16 24.39 24.16 23.96 20.87 19.60 16.95 17.14 18.47 17.71 17.00 16.34 15.83 15.29 14.30 14.48 13.74 13.69 13.65 12.99 13.38 18.22 20.34 20.45 17.82 16.65 15.87 16.05
25.35 24.91 25.13 24.85 24.01 23.73 23.41 20.91 19.69 17.28 14.92 15.90 16.23 13.79 13.88 13.09 12.17 12.05 12.03 11.38 10.96 10.84 10.54 10.60 12.19 16.89 17.86 18.16 16.01 14.77 14.48 14.37
25.57 24.99 23.57 23.34 23.12 21.83 20.03 19.63 18.15 17.18 16.83 14.95 13.28 10.65 10.84 7.43 8.53 9.45 8.90 8.30 7.49 9.37 8.54 7.32 7.80 13.70 15.81 16.18 13.43 13.04 12.84 13.70
25.20 23.86 22.27 20.96 20.98 19.28 17.27 15.57 14.67 16.33 15.51 13.63 12.23 6.01 5.55 7.69 6.68 7.11 5.03 7.45 7.90 7.13 6.85 6.18 4.73 10.98 14.02 15.28 12.80 10.43 11.53 12.91
23.35 22.38 20.81 18.74 17.75 16.44 14.84 13.18 14.32 12.76 11.49 10.56 9.41 5.46 5.16 3.83 4.74 3.74 2.95 4.74 2.54 3.28 3.78 3.75 5.04 5.89 13.52 15.82 13.65 12.35 11.50 11.86
22.16 19.92 17.30 17.06 15.78 14.04 12.52 13.28 10.64 8.98 8.88 6.50 0.55 1.74 3.79 -5.40 -0.86 -1.53 -1.06 -1.20 -0.81 -0.54 0.73 3.70 5.62 9.58 12.82 15.61 17.41 18.07 14.29 13.26
19.95 16.96 15.74 13.22 12.11 11.38 11.25 10.28 8.41 3.70 2.06 -3.75 -1.48 0.84 0.72 -5.59 -1.28 -1.04 -2.73 -2.81 -0.95 0.71 0.58 2.07 5.90 7.13 12.94 16.08 17.67 18.57 16.16 16.21
15.13 13.75 11.17 9.37 11.36 7.99 8.72 7.51 0.57 -0.31 0.26 -0.71 -2.32 -2.03 -2.25 1.45 1.91 -0.33 -1.81 -1.60 -0.06 0.22 1.25 4.11 8.63 10.78 12.00 12.28 13.16 16.93 17.90 18.75
15.24 13.50 10.33 8.82 7.14 5.80 6.43 2.30 -0.90 -1.05 0.59 -1.21 -2.89 -4.33 -1.43 0.13 0.45 1.28 2.77 4.03 4.30 7.65 9.82 9.04 8.31 10.62 17.24 18.10 16.56 16.69 18.25 19.40
10.20 8.96 6.57 4.88 3.89 2.83 -1.15 -2.52 -2.88 -0.10 0.70 -1.36 -1.48 -1.52 -0.12 -0.59 -0.78 6.59 10.90 13.36 14.93 16.13 14.50 12.71 15.87 17.41 18.64 18.77 20.06 20.57 19.99 12.86
7.81 5.58 2.46 0.38 0.79 1.83 -0.69 -4.89 -5.63 -5.46 -3.69 -3.46 -1.39 -2.58 -3.17 -3.38 -3.64 -4.72 0.85 9.67 11.00 12.04 13.56 14.24 15.47 16.01 17.24 18.50 17.72 16.07 12.48 1.62
2.93 -0.72 -3.14 -4.47 -2.81 0.92 -4.91 -4.97 -5.12 -10.70 -6.01 -8.17 -5.96 -6.84 -7.38 -6.34 -5.18 -4.11 -4.67 -4.83 -2.15 4.86 8.65 11.74 12.87 14.63 15.60 14.53 9.60 -1.03 1.41 0.61
-4.75 -7.84 -7.16 -8.21 -2.23 -6.21 -11.41 -8.72 -9.62 -10.53 -8.17 -8.88 -8.89 -8.71 -6.53 -5.32 -4.51 -4.61 -4.13 -3.91 -3.73 -2.43 2.42 3.78 9.44 12.40 10.73 10.29 -3.65 -1.68 -1.79 -0.71
MSLP
1025.96 1026.44 1026.64 1026.71 1026.95 1026.98 1027.07 1027.32 1027.54 1027.69 1027.84 1028.00 1028.25 1028.40 1028.56 1028.77 1028.97 1028.73 1028.71 1028.42 1028.06 1027.85 1027.71 1027.52 1027.07 1027.01 1027.00 1026.77 1026.32 1026.10 1025.68 1025.46
1025.75 1026.20 1026.50 1026.76 1026.95 1027.16 1027.28 1027.54 1027.81 1027.92 1028.15 1028.43 1028.56 1028.55 1028.55 1028.62 1028.76 1028.70 1028.41 1028.08 1027.94 1027.94 1027.68 1027.50 1027.04 1027.06 1027.04 1026.82 1026.33 1026.10 1025.53 1025.15
1025.31 1025.85 1026.23 1026.51 1026.85 1027.12 1027.47 1027.61 1027.67 1027.84 1028.09 1028.32 1028.48 1028.56 1028.54 1028.60 1028.54 1028.43 1028.23 1028.04 1027.92 1027.75 1027.61 1027.42 1027.30 1027.15 1026.93 1026.52 1026.11 1025.80 1025.16 1024.68
1025.17 1025.53 1025.86 1026.14 1026.45 1026.80 1027.24 1027.43 1027.54 1027.76 1028.00 1028.23 1028.40 1028.60 1028.58 1028.54 1028.39 1028.30 1028.23 1028.20 1028.07 1027.84 1027.68 1027.41 1027.20 1026.87 1026.57 1026.21 1025.68 1025.43 1024.93 1024.49
1024.84 1025.10 1025.49 1025.88 1026.20 1026.52 1026.91 1027.09 1027.32 1027.57 1027.83 1027.96 1028.21 1028.46 1028.50 1028.47 1028.42 1028.35 1028.24 1028.16 1027.99 1027.78 1027.61 1027.43 1027.15 1026.80 1026.35 1025.94 1025.48 1024.95 1024.31 1023.73
1023.96 1024.54 1025.15 1025.68 1025.90 1026.25 1026.60 1026.82 1027.09 1027.42 1027.74 1028.05 1028.29 1028.44 1028.47 1028.38 1028.31 1028.21 1028.07 1027.97 1027.86 1027.54 1027.25 1027.14 1026.88 1026.23 1025.88 1025.56 1025.00 1024.36 1023.60 1023.03
1023.73 1024.33 1024.83 1025.22 1025.44 1025.75 1026.08 1026.47 1026.88 1027.38 1027.98 1028.10 1028.25 1028.36 1028.48 1028.49 1028.45 1028.34 1028.21 1028.11 1027.94 1027.75 1027.50 1027.04 1026.66 1026.29 1025.77 1025.26 1024.57 1023.92 1023.29 1022.52
1023.30 1023.74 1024.24 1024.62 1024.72 1025.20 1025.61 1026.27 1027.10 1027.76 1028.05 1028.06 1028.23 1028.51 1028.75 1028.80 1028.71 1028.65 1028.54 1028.35 1028.15 1027.92 1027.68 1027.17 1026.71 1026.17 1025.41 1024.90 1024.34 1023.71 1023.18 1022.63
1023.01 1023.49 1023.73 1023.99 1024.46 1024.87 1025.51 1026.39 1027.14 1027.52 1027.89 1028.03 1028.35 1028.67 1028.80 1028.83 1028.89 1028.86 1028.75 1028.56 1028.26 1027.89 1027.69 1027.13 1026.56 1025.85 1025.21 1024.58 1023.80 1023.20 1022.71 1022.25
1022.71 1023.12 1023.41 1023.84 1024.34 1024.96 1025.74 1026.36 1026.84 1027.31 1027.78 1028.23 1028.61 1028.91 1029.00 1029.14 1029.12 1029.06 1028.89 1028.65 1028.29 1027.87 1027.35 1027.00 1026.23 1025.74 1024.88 1023.99 1023.28 1022.57 1022.03 1021.66
1022.53 1023.13 1023.64 1024.03 1024.46 1025.07 1025.80 1026.37 1026.94 1027.45 1027.99 1028.57 1028.95 1029.21 1029.41 1029.41 1029.33 1029.15 1029.08 1028.51 1028.06 1027.53 1027.29 1026.74 1025.95 1025.39 1024.48 1023.42 1022.64 1021.80 1021.13 1020.60
1022.54 1023.10 1023.50 1024.28 1024.79 1025.41 1025.96 1026.38 1026.82 1027.48 1028.08 1028.62 1029.08 1029.43 1029.48 1029.36 1029.26 1029.09 1028.83 1028.35 1027.90 1027.33 1026.79 1026.27 1025.68 1024.76 1023.68 1022.64 1021.80 1021.02 1020.07 1019.27
1022.63 1023.20 1023.73 1024.42 1025.01 1025.65 1026.21 1026.61 1027.19 1027.76 1028.24 1028.73 1029.11 1029.25 1029.13 1029.10 1029.00 1028.80 1028.53 1028.14 1027.56 1026.90 1025.97 1025.35 1024.64 1023.88 1022.66 1021.82 1020.92 1019.91 1018.88 1017.99
1022.53 1023.34 1024.01 1024.58 1025.21 1025.91 1026.35 1026.93 1027.65 1028.26 1028.76 1029.01 1029.12 1029.06 1028.92 1028.88 1028.62 1028.34 1027.96 1027.54 1026.90 1026.25 1025.27 1024.21 1023.52 1022.54 1021.67 1020.75 1019.73 1018.67 1017.49 1016.57
1022.78 1023.54 1024.29 1024.84 1025.50 1026.01 1026.65 1027.28 1027.96 1028.58 1028.87 1029.01 1029.12 1028.89 1028.64 1028.44 1028.02 1027.58 1027.12 1026.60 1026.01 1025.28 1024.26 1023.16 1022.06 1021.13 1020.44 1019.42 1018.26 1017.29 1016.22 1015.37
1022.48 1023.26 1024.15 1025.05 1025.75 1026.31 1026.92 1027.48 1028.28 1028.58 1028.63 1028.64 1028.64 1028.52 1028.24 1027.86 1027.25 1026.62 1025.93 1025.46 1024.47 1023.66 1022.84 1021.95 1021.07 1020.37 1019.16 1018.00 1017.01 1016.20 1015.22 1013.93
1022.70 1023.51 1024.37 1025.14 1025.87 1026.44 1026.91 1027.45 1028.09 1028.40 1028.39 1028.30 1028.27 1028.03 1027.75 1027.31 1026.46 1025.83 1024.66 1023.83 1023.28 1022.77 1022.09 1021.38 1020.62 1019.60 1018.55 1017.60 1016.37 1015.32 1014.57 1014.09
1022.92 1023.86 1024.71 1025.43 1025.92 1026.28 1026.82 1027.30 1027.77 1027.98 1028.02 1028.03 1027.89 1027.73 1027.43 1027.00 1026.55 1025.58 1024.04 1023.64 1023.07 1022.63 1021.97 1021.33 1020.22 1019.34 1018.30 1017.05 1016.24 1015.76 1015.57 1015.30
1023.65 1024.48 1025.07 1025.55 1025.80 1026.09 1026.52 1026.95 1027.31 1027.58 1027.52 1027.58 1027.42 1027.36 1027.06 1026.75 1026.34 1025.81 1025.18 1024.28 1022.88 1022.37 1022.15 1021.19 1020.28 1019.28 1018.20 1017.54 1017.10 1016.65 1016.10 1015.74
1024.39 1025.03 1025.48 1025.73 1025.68 1025.94 1026.31 1026.70 1026.98 1027.16 1027.01 1026.94 1026.94 1026.87 1026.68 1026.39 1026.03 1025.56 1025.05 1024.57 1023.87 1022.67 1021.44 1021.10 1020.26 1019.31 1018.83 1018.22 1018.15 1017.38 1016.41 1015.53
Wind_Speed
7 7 5 5 5 6 6 7 6 6 5 5 6 5 5 4 4 5 4 4 5 5 5 6 5 6 7 7 7 6 5 5
6 6 6 6 5 5 6 6 5 5 5 5 4 4 4 4 4 4 3 5 6 6 6 6 6 5 5 5 6 8 9 8
7 8 7 7 6 7 6 6 6 5 5 5 4 4 5 5 5 6 6 5 6 6 7 7 7 6 6 8 8 9 11 11
7 8 8 7 7 7 7 7 6 6 5 4 3 2 2 3 3 4 5 5 5 5 6 8 7 8 7 8 9 10 10 11
7 8 8 7 7 7 7 7 6 6 5 3 2 1 2 2 3 3 3 5 6 7 7 8 8 9 9 9 10 11 12 13
11 9 7 7 7 6 6 7 6 5 4 3 2 2 3 4 5 5 6 7 8 10 10 10 9 8 12 13 14 15 16 15
6 7 8 8 8 7 7 6 5 5 4 3 2 2 4 5 6 7 8 9 9 10 10 12 10 21 24 21 15 16 17 17
8 8 7 9 9 9 7 6 5 5 4 3 4 4 4 5 6 7 8 9 9 10 10 12 13 22 25 26 15 16 16 16
5 6 8 5 5 6 7 6 6 4 3 3 4 3 4 5 6 7 7 9 10 10 11 12 11 24 26 27 17 15 16 16
6 5 4 6 6 7 6 6 5 4 4 3 3 3 5 6 7 7 8 9 10 10 11 12 13 24 26 24 15 14 15 15
6 3 5 6 7 7 6 5 5 5 4 3 1 2 4 6 6 5 5 10 9 11 11 13 15 22 25 21 11 13 12 14
5 7 6 6 6 6 5 5 5 5 3 1 1 3 5 4 5 6 7 9 9 11 10 12 13 15 23 24 14 12 12 12
6 7 6 6 6 6 5 4 4 3 0 2 3 4 4 3 5 5 6 8 9 10 10 8 11 17 20 24 26 25 15 14
7 7 6 6 5 6 4 5 4 3 3 3 4 5 4 4 7 6 5 6 7 8 9 10 10 10 22 26 28 28 20 14
8 9 8 6 5 4 5 5 4 4 5 4 4 5 5 5 5 6 5 6 7 8 10 10 10 10 10 12 13 21 18 19
10 9 7 6 5 5 5 5 4 4 5 4 4 5 6 6 6 6 7 8 9 9 9 11 11 11 24 23 14 13 17 21
6 6 6 6 5 5 5 6 5 4 4 3 3 4 5 5 7 13 17 18 20 22 16 9 22 27 28 28 30 29 29 12
8 6 6 5 5 5 5 5 6 5 4 3 4 4 4 4 5 8 9 17 14 13 18 22 22 25 27 27 27 25 21 6
6 6 5 5 6 4 5 5 6 5 6 4 4 4 3 4 5 5 5 8 11 12 16 18 21 24 25 22 18 11 9 7
6 4 5 4 6 4 4 6 6 4 4 4 3 3 5 4 4 4 5 6 7 11 14 13 21 21 19 19 4 8 10 10
Wind_Direction
188 184 172 150 144 122 105 105 109 98 88 82 81 80 78 68 41 28 357 354 356 356 352 343 351 348 347 339 333 329 321 312
185 181 175 166 155 135 127 129 127 121 117 114 96 80 78 60 31 12 350 360 358 343 340 335 337 334 327 318 308 315 311 307
183 177 176 173 170 172 169 165 170 160 141 132 107 64 46 29 10 2 354 349 342 338 336 332 329 325 320 317 313 304 306 302
184 187 182 184 185 185 186 190 179 170 163 140 99 48 353 323 322 327 320 308 306 309 302 319 317 314 307 294 298 291 286 286
195 197 195 189 189 188 195 194 187 184 173 145 101 21 339 323 331 343 331 325 331 329 323 322 320 314 302 299 295 291 289 288
200 198 190 191 199 200 205 197 185 177 164 132 85 35 23 17 11 353 348 342 333 329 326 325 322 317 320 314 304 299 293 288
197 188 193 201 207 200 209 201 175 167 147 109 84 61 36 13 352 343 340 336 331 327 321 319 316 317 314 310 302 300 298 298
199 197 204 212 210 208 190 152 140 146 153 117 79 47 19 350 343 338 330 325 322 318 316 311 309 311 311 311 303 299 295 294
214 218 226 216 187 153 147 146 151 129 108 82 55 22 349 344 335 325 320 317 313 310 307 300 302 310 310 308 302 297 295 294
227 230 229 206 169 143 138 139 129 122 107 76 38 348 339 327 318 312 310 306 300 298 304 300 298 306 306 308 301 294 293 292
236 199 181 183 154 145 155 152 154 148 133 125 156 277 290 288 293 294 284 291 298 296 295 292 292 298 301 306 295 292 290 286
193 207 194 151 144 157 156 186 150 132 126 154 236 247 256 260 274 286 286 288 290 288 288 284 281 283 298 305 298 291 286 280
197 194 163 152 150 163 186 142 120 105 196 264 269 286 284 262 271 264 270 277 285 288 290 281 280 281 296 300 296 293 293 287
187 168 167 156 157 172 170 137 148 154 245 276 283 277 270 268 279 282 268 266 283 290 293 293 286 281 284 286 292 287 285 280
161 181 183 168 157 141 145 147 149 204 243 252 250 268 261 266 265 268 267 276 281 283 284 284 294 297 298 283 277 276 280 282
189 189 180 159 161 157 160 151 181 214 243 243 241 250 268 256 259 261 257 257 271 278 290 301 304 301 304 312 310 304 297 304
169 158 162 158 169 176 170 170 190 223 237 228 242 249 263 273 283 281 292 296 297 301 304 302 306 310 315 314 310 316 325 324
171 155 152 165 198 185 177 177 193 217 237 239 252 250 254 268 280 302 312 309 307 314 321 316 315 322 316 322 325 338 332 316
137 149 163 180 220 193 179 188 210 216 234 221 240 242 246 249 262 268 291 308 313 315 321 322 328 323 336 336 349 327 330 308
140 163 180 198 237 190 181 198 217 220 228 221 229 240 249 257 269 263 275 281 290 309 320 318 323 328 341 343 319 314 315 316